User: anonymous   Login
Location: Acton
(51.4942°N, 0.2232°W)
Time: 15:24:05
(UTC+00:00)
Language:

Cosmos 2082 Rocket - Orbit

View from above orbital plane
View from above orbital plane
View from above satellite
View from above satellite

Ground track
Ground track

The orbit data is extracted from the following two-line orbital elements,

1 20625U 90046B   20339.49108319  .00000304  00000-0  18242-3 0  9993
2 20625  70.9996  11.2960 0015024 335.5657  24.4751 14.14660611576665
Epoch (UTC): 04 December 2020 11:47:09
Eccentricity: 0.0015024
inclination: 70.9996°
perigee height: 832 km
apogee height: 854 km
right ascension of ascending node: 11.2960°
argument of perigee: 335.5657°
revolutions per day: 14.14660611
mean anomaly at epoch: 24.4751°
orbit number at epoch: 57666

The dashed part of the orbit path shows where the satellite is in the earth's shadow,  

DLR